Wind_Speed
21 21 22 22 23 22 21 22 22 21 22 22 23 23 22 23 22 22 22 23 23 23 23 24 24 24 23 23 23 23 23 22 22 23 24 25 26 27 27 27 27 28 29
20 20 21 21 21 21 21 21 22 22 22 22 22 22 21 21 22 22 22 22 22 23 23 23 23 23 23 22 22 23 23 22 22 22 23 24 25 25 26 26 26 27 28
19 19 19 19 19 20 20 21 21 21 21 21 21 21 21 21 22 22 22 23 23 23 23 23 22 22 22 22 22 22 22 22 22 22 22 23 24 25 24 25 25 26 27
18 18 18 18 18 19 19 19 19 19 20 20 20 20 21 21 22 23 23 23 23 23 22 22 22 21 22 22 22 21 21 21 22 22 21 22 23 23 23 24 24 25 26
17 17 17 17 17 18 18 18 18 19 19 19 19 20 21 21 22 22 21 21 21 21 22 22 23 22 22 22 20 20 21 21 21 22 21 21 21 22 22 22 23 23 24
17 17 17 16 16 17 17 18 18 19 18 19 19 19 19 20 20 20 20 20 20 20 21 22 22 22 22 21 20 19 19 20 20 21 21 21 21 21 22 22 22 22 23
16 16 15 15 15 16 17 17 18 18 18 18 18 19 19 19 19 19 19 20 19 19 20 21 21 20 20 20 19 19 19 20 20 20 20 20 20 20 20 20 20 21 22
14 14 13 14 15 15 16 16 17 18 17 17 18 19 19 19 19 18 19 19 19 19 19 20 19 19 19 18 18 19 19 19 19 18 18 18 19 19 19 19 19 20 21
13 12 13 13 13 14 14 15 17 17 17 17 18 18 19 19 19 19 19 19 19 19 19 18 18 18 18 18 18 18 18 18 18 17 17 17 18 18 18 18 18 19 20
12 12 12 12 12 13 14 15 16 17 17 17 18 18 18 18 18 19 19 19 18 18 18 18 18 18 19 19 18 18 17 18 17 16 16 16 16 16 17 17 17 17 17
12 11 11 12 12 13 14 15 16 16 17 17 18 18 18 19 19 19 19 19 18 18 18 18 18 19 18 18 18 18 17 17 16 15 15 16 16 16 16 16 16 17 16
10 11 11 12 12 13 14 15 15 16 16 17 17 18 18 19 19 19 19 19 19 19 18 18 19 19 19 18 18 18 17 16 16 16 16 16 16 16 17 17 17 17 17
9 10 11 11 12 12 13 14 15 16 17 17 18 18 19 19 19 20 20 21 20 19 19 19 19 19 19 20 20 19 18 17 17 17 17 16 16 16 17 17 18 18 19
9 10 10 10 10 11 12 14 14 15 16 16 17 18 19 19 20 21 21 21 21 20 20 21 21 21 21 20 19 19 19 19 19 18 17 17 17 17 17 17 18 19 19
9 9 9 10 11 12 13 14 15 15 16 17 17 18 19 19 20 21 22 22 22 22 22 22 22 22 21 21 21 20 20 19 19 18 18 18 18 18 18 18 18 19 20
8 9 9 10 11 12 13 14 15 16 17 17 18 19 20 20 21 22 22 22 22 23 23 23 23 23 23 22 22 21 20 20 20 20 19 19 19 18 18 18 18 19 20
8 9 9 10 11 11 13 14 16 17 18 19 19 20 21 22 22 22 22 23 24 25 25 25 24 24 23 23 22 21 20 20 20 20 20 20 20 19 19 19 19 20 20
8 9 10 11 11 13 14 15 16 18 18 20 20 20 21 22 22 23 24 24 25 25 25 25 24 24 24 24 22 21 21 20 20 20 20 20 21 20 20 21 21 22 21
8 9 10 11 12 13 15 16 17 19 19 20 21 21 21 22 23 24 25 26 26 26 25 25 25 25 25 24 23 22 21 21 21 22 22 21 22 21 21 22 22 22 22
8 9 10 11 12 14 15 17 18 19 20 21 21 21 21 22 24 25 26 27 27 27 26 26 26 26 25 25 24 23 23 22 22 22 23 22 22 22 22 22 22 21 22
8 10 11 12 13 14 16 18 19 20 21 22 22 23 23 24 25 26 27 27 28 27 28 28 28 27 26 25 25 24 24 23 23 23 23 23 23 23 23 23 23 22 22
9 10 11 12 13 15 17 18 19 21 22 22 23 24 24 25 26 27 27 28 28 28 29 29 28 28 27 26 26 26 24 24 24 24 24 24 24 24 24 24 24 23 23
9 10 11 12 14 15 17 19 20 21 22 22 24 25 26 26 27 28 28 29 29 29 29 29 29 28 28 27 27 27 26 25 25 26 26 26 26 25 25 25 24 24 24
10 11 12 13 15 16 17 19 20 21 22 24 25 25 26 27 28 28 29 29 29 29 30 30 30 29 29 29 29 28 27 27 26 26 26 26 26 26 26 26 25 25 24
11 12 13 14 15 17 18 19 21 22 23 25 25 26 27 28 29 29 30 30 30 30 31 31 31 30 30 30 30 29 29 28 28 27 27 27 26 26 25 25 24 23 23
12 13 14 15 16 17 18 20 21 23 24 25 26 27 28 29 30 30 30 30 30 31 31 31 31 31 31 30 30 30 30 29 29 28 27 26 25 25 24 23 22 22 21
Wind_Direction
300 298 299 298 300 301 301 302 303 304 307 308 308 307 307 306 305 303 303 303 303 303 303 303 301 301 299 294 291 287 285 282 277 275 272 271 270 270 270 268 265 264 264
300 299 301 301 301 302 303 305 307 307 308 309 311 310 310 309 308 305 305 305 304 303 303 304 303 301 301 297 293 290 286 283 280 277 274 273 271 270 271 270 268 266 264
303 305 306 304 304 304 305 308 311 310 310 312 313 313 312 311 310 308 306 305 306 304 303 303 303 302 303 300 296 292 288 286 283 280 277 275 274 272 271 270 269 268 266
304 307 307 307 306 307 310 314 315 315 314 313 314 314 314 313 312 310 308 307 306 304 303 303 304 304 304 302 298 293 291 288 285 284 283 280 277 274 273 272 270 269 267
305 307 308 308 309 311 314 317 319 319 317 316 317 319 318 317 316 313 311 309 308 307 306 305 305 305 304 303 301 298 294 291 289 288 286 284 281 277 275 274 272 272 269
309 308 308 310 313 315 318 318 318 319 319 321 322 324 324 322 322 321 317 313 311 311 312 310 309 307 306 305 302 302 300 297 294 291 289 286 281 278 276 275 274 273 272
309 309 308 311 315 317 318 319 320 321 322 325 328 330 331 329 327 326 323 320 317 315 316 316 315 312 310 309 306 303 303 301 298 294 291 287 283 279 277 276 275 273 272
310 309 310 313 316 317 319 322 325 327 327 327 329 331 333 333 332 332 331 328 326 324 320 318 320 320 317 312 309 307 305 304 301 296 292 289 287 283 280 278 276 273 271
316 315 315 316 317 318 323 325 328 330 330 330 330 332 333 333 333 333 331 330 330 329 326 324 323 322 322 319 313 311 308 307 303 298 296 294 291 288 284 281 278 276 273
322 324 324 321 319 322 326 327 329 330 331 331 332 331 332 333 334 336 336 334 333 331 329 329 328 326 324 322 320 316 311 307 303 300 299 297 293 289 286 283 281 279 275
327 327 328 326 325 325 326 328 331 333 334 335 334 334 333 334 334 336 337 338 336 334 332 331 331 329 327 324 322 320 317 313 308 304 303 299 296 292 287 284 282 280 278
326 328 330 330 329 329 328 329 333 335 336 335 334 335 336 335 335 336 337 338 337 335 333 332 331 330 328 325 324 321 319 316 312 308 303 301 299 296 290 285 282 280 280
327 329 330 330 330 333 334 335 336 335 335 334 336 337 338 338 338 337 336 335 336 334 333 331 330 327 324 323 322 321 318 316 313 310 304 302 301 299 294 289 285 284 285
332 334 336 336 337 339 339 340 341 341 341 341 339 338 340 340 339 338 337 337 335 334 332 331 328 326 324 323 321 319 318 315 312 308 305 303 301 299 297 293 289 286 286
332 335 339 339 337 338 340 341 345 346 344 342 341 341 341 341 340 338 337 336 335 333 331 330 329 328 324 322 320 317 315 314 313 310 306 303 301 298 297 296 294 291 288
332 334 338 342 342 342 342 344 347 346 345 343 342 341 341 342 341 340 339 337 333 332 331 330 329 326 324 322 320 318 315 312 310 309 307 305 302 299 297 295 294 294 294
331 335 340 342 342 343 344 343 344 344 344 344 343 341 340 340 339 338 338 337 336 335 332 330 329 328 326 326 324 320 316 313 312 310 308 305 303 302 300 298 297 295 295
336 338 339 341 344 345 343 342 343 343 342 342 342 342 341 340 339 339 339 339 339 338 337 335 333 331 329 328 327 323 319 316 313 312 309 304 301 300 299 297 296 296 295
337 339 340 341 343 343 342 341 342 341 340 339 341 342 342 341 341 341 341 340 341 340 340 339 337 335 332 330 328 326 322 319 316 314 311 307 302 299 298 297 296 295 294
336 338 339 340 342 342 341 340 340 340 340 340 341 342 342 342 341 340 341 341 341 341 340 339 337 335 333 332 330 328 325 321 317 313 310 308 306 303 301 299 297 295 293
335 336 336 337 340 341 341 341 341 341 341 341 341 341 341 340 340 339 339 340 341 342 341 340 338 337 335 332 330 327 324 321 318 314 312 309 308 307 304 301 299 297 295
330 331 331 335 337 338 340 341 342 342 342 341 341 340 340 340 340 338 339 340 341 341 341 340 338 336 335 332 330 328 325 322 320 317 314 311 309 308 307 304 300 297 295
328 328 331 336 336 337 338 340 342 343 341 340 340 340 339 340 341 340 341 341 340 340 341 341 339 337 335 334 331 328 324 321 319 317 315 314 311 309 308 306 301 297 293
327 329 330 334 335 336 338 340 343 343 342 341 340 338 338 339 340 340 340 340 340 339 339 339 339 337 336 335 334 332 329 325 322 320 317 316 314 311 308 306 303 299 294
326 329 330 331 334 336 338 340 341 342 342 341 340 339 339 339 340 340 340 341 341 340 339 338 338 337 336 336 335 334 332 329 327 323 320 317 315 313 310 308 306 302 299
324 328 331 333 335 336 336 337 339 341 341 341 340 339 339 339 340 341 340 340 340 339 339 339 338 337 337 336 336 335 333 332 329 327 324 320 317 316 315 313 311 308 303
Height
5775 5773 5771 5768 5766 5763 5761 5759 5756 5754 5751 5748 5745 5742 5739 5737 5734 5731 5728 5726 5723 5720 5717 5715 5712 5709 5707 5704 5702 5700 5699 5698 5698 5697 5695 5694 5694 5693 5693 5693 5694 5694 5695
5770 5768 5766 5763 5761 5759 5757 5754 5752 5749 5746 5743 5740 5737 5734 5731 5729 5726 5723 5720 5718 5715 5712 5709 5706 5704 5701 5698 5696 5694 5693 5691 5691 5690 5689 5688 5687 5687 5686 5686 5686 5686 5687
5765 5763 5761 5759 5757 5755 5753 5750 5747 5745 5742 5739 5736 5733 5730 5727 5723 5721 5718 5715 5712 5710 5707 5704 5701 5698 5696 5693 5691 5689 5687 5685 5684 5683 5682 5681 5680 5680 5679 5679 5679 5679 5679
5761 5759 5757 5755 5753 5751 5749 5746 5743 5741 5738 5735 5732 5729 5725 5722 5719 5716 5713 5710 5707 5704 5702 5699 5696 5693 5691 5688 5685 5683 5681 5679 5678 5677 5676 5674 5673 5673 5672 5672 5671 5671 5671
5757 5755 5753 5751 5749 5747 5745 5742 5740 5737 5734 5731 5728 5725 5721 5717 5714 5710 5707 5705 5702 5699 5697 5694 5691 5688 5686 5683 5680 5678 5676 5674 5672 5671 5669 5668 5667 5666 5665 5665 5664 5664 5664
5754 5751 5749 5747 5745 5743 5741 5739 5737 5734 5731 5728 5725 5721 5717 5714 5710 5706 5703 5700 5697 5695 5692 5689 5686 5683 5680 5678 5675 5673 5671 5669 5667 5665 5664 5662 5660 5659 5659 5658 5658 5657 5657
5750 5748 5746 5744 5742 5740 5738 5736 5734 5731 5728 5725 5722 5718 5715 5711 5707 5703 5700 5696 5693 5690 5687 5684 5681 5678 5676 5673 5670 5668 5666 5664 5662 5660 5658 5656 5654 5653 5653 5652 5651 5651 5651
5746 5744 5743 5741 5739 5737 5735 5733 5731 5728 5725 5722 5719 5715 5712 5708 5704 5700 5697 5693 5690 5686 5683 5680 5677 5675 5672 5669 5666 5663 5661 5659 5656 5654 5653 5651 5649 5648 5647 5646 5645 5645 5644
5743 5741 5739 5738 5736 5735 5733 5731 5728 5725 5722 5719 5716 5713 5709 5705 5702 5698 5694 5690 5687 5683 5680 5677 5674 5671 5668 5665 5662 5659 5657 5654 5652 5649 5648 5646 5644 5643 5641 5641 5640 5639 5639
5740 5739 5737 5735 5734 5732 5730 5728 5725 5723 5720 5717 5713 5710 5706 5703 5699 5695 5691 5687 5684 5680 5677 5674 5671 5668 5665 5661 5658 5655 5653 5650 5648 5645 5643 5641 5639 5638 5637 5636 5635 5634 5633
5738 5737 5735 5733 5732 5730 5728 5726 5723 5720 5718 5715 5711 5708 5704 5700 5697 5693 5689 5685 5681 5678 5674 5671 5668 5664 5661 5658 5655 5652 5649 5646 5644 5641 5639 5637 5635 5633 5632 5631 5630 5629 5628
5737 5735 5733 5732 5730 5728 5726 5723 5721 5718 5715 5712 5709 5706 5702 5698 5694 5690 5686 5683 5679 5675 5672 5668 5665 5661 5658 5655 5651 5648 5645 5643 5640 5638 5635 5633 5631 5629 5627 5626 5625 5624 5623
5735 5733 5731 5730 5728 5726 5724 5721 5719 5716 5713 5710 5707 5703 5700 5696 5692 5688 5684 5680 5676 5672 5669 5665 5662 5658 5654 5651 5648 5645 5642 5639 5636 5634 5631 5629 5627 5625 5623 5621 5620 5619 5618
5733 5731 5730 5728 5726 5724 5722 5719 5716 5713 5710 5707 5704 5701 5697 5694 5690 5685 5681 5677 5674 5670 5666 5662 5658 5654 5651 5647 5643 5640 5637 5634 5631 5629 5627 5624 5622 5620 5618 5617 5615 5614 5613
5731 5730 5728 5727 5725 5723 5721 5718 5715 5712 5708 5706 5702 5699 5695 5692 5687 5683 5679 5675 5671 5667 5663 5658 5654 5650 5646 5642 5639 5636 5632 5630 5627 5624 5622 5619 5617 5615 5613 5611 5610 5608 5607
5730 5729 5727 5725 5724 5722 5719 5716 5713 5710 5707 5704 5700 5697 5693 5689 5685 5681 5676 5672 5667 5663 5659 5654 5650 5646 5642 5638 5634 5630 5627 5624 5621 5619 5616 5614 5612 5610 5608 5606 5604 5602 5601
5729 5727 5725 5724 5722 5720 5717 5715 5712 5709 5705 5702 5698 5694 5690 5686 5682 5678 5674 5669 5664 5660 5655 5650 5646 5641 5637 5633 5629 5625 5622 5619 5616 5613 5611 5608 5606 5604 5602 5600 5598 5596 5594
5727 5726 5724 5722 5720 5718 5716 5713 5711 5707 5704 5700 5696 5692 5688 5684 5680 5675 5671 5666 5661 5656 5651 5646 5641 5637 5632 5628 5624 5620 5617 5614 5611 5608 5605 5602 5600 5598 5596 5594 5592 5590 5588
5726 5724 5723 5721 5719 5717 5714 5712 5709 5705 5701 5697 5694 5690 5686 5682 5677 5673 5668 5663 5658 5653 5648 5642 5637 5633 5628 5623 5619 5615 5612 5608 5605 5602 5599 5596 5594 5591 5589 5587 5585 5583 5581
5725 5723 5722 5720 5718 5715 5713 5710 5706 5703 5699 5695 5691 5687 5683 5679 5675 5670 5665 5660 5654 5649 5644 5639 5634 5628 5624 5619 5615 5611 5607 5603 5599 5596 5593 5590 5587 5584 5582 5580 5577 5575 5574
5723 5722 5720 5718 5716 5714 5711 5708 5704 5700 5696 5692 5688 5684 5680 5676 5672 5667 5662 5656 5651 5646 5640 5635 5630 5624 5619 5615 5610 5606 5601 5597 5594 5590 5587 5583 5580 5577 5575 5572 5570 5568 5566
5722 5720 5718 5717 5714 5712 5709 5705 5702 5698 5694 5690 5686 5682 5677 5673 5668 5663 5658 5653 5647 5642 5637 5631 5626 5620 5615 5610 5605 5601 5596 5592 5588 5584 5580 5577 5574 5571 5568 5565 5562 5560 5558
5720 5718 5717 5714 5712 5709 5706 5703 5699 5695 5691 5687 5683 5679 5675 5670 5665 5660 5655 5649 5644 5638 5633 5627 5621 5616 5610 5605 5600 5595 5591 5586 5582 5578 5574 5570 5566 5563 5560 5557 5555 5552 5550
5718 5716 5714 5712 5709 5707 5704 5700 5697 5693 5689 5685 5680 5676 5671 5667 5662 5656 5651 5646 5640 5635 5629 5623 5617 5611 5606 5600 5595 5589 5584 5580 5575 5571 5567 5563 5559 5556 5553 5550 5547 5544 5542
5715 5714 5712 5710 5707 5704 5701 5698 5694 5690 5686 5682 5678 5673 5668 5663 5658 5653 5648 5642 5636 5631 5625 5619 5613 5607 5601 5596 5590 5585 5579 5574 5569 5565 5560 5556 5552 5549 5545 5542 5539 5536 5534
5713 5711 5709 5707 5704 5701 5698 5695 5691 5688 5684 5679 5675 5670 5665 5660 5654 5649 5643 5638 5632 5626 5621 5614 5609 5603 5597 5591 5586 5580 5574 5569 5564 5559 5554 5550 5546 5542 5539 5535 5533 5530 5527